144P/Kushida (2024)

Japanese version
Home page
Updated on November 4, 2020

---------------------------------------------------------------------

* Profile

* Orbital Elements

Epoch 2024 Jan. 11.0 TT = JDT 2460320.5
T 2024 Jan. 25.61155 TT                                 MPCW
q   1.3989287            (2000.0)            P               Q
n   0.13141508     Peri.  216.32676     -0.15943328     -0.98531922
a   3.8315330      Node   242.91930     +0.92113634     -0.12623439
e   0.6348906      Incl.    3.93168     +0.35508994     -0.11493875
P   7.50
From 2982 observations 1994 Jan. 7-2017 May 1, mean residual 0".6.
     Nongravitational parameters A1 = +0.74, A2 = +0.0097.

* Finding Charts

* Magnitudes Graph

        m1 =  7.5 + 5 log d +  30 log r(t - 30)  [   ,-39]  (             - 2023 Dec. 17)
        m1 = -5.5 + 5 log d + 100 log r(t - 20)  [-39, 52]  (2023 Dec. 17 - 2024 Mar. 17)
        m1 =  6.0 + 5 log d +  25 log r          [ 52,   ]  (2024 Mar. 17 -             )

---------------------------------------------------------------------

The orbital elements are published on M.P.E.C. 2017-J52.
The charts are made with StellaNavigator Ver.10 (AstroArts).
The magnitudes graphs are made with Comet for Windows.

---------------------------------------------------------------------

Copyright(C) Seiichi Yoshida (comet@aerith.net). All rights reserved.